Location: Saint-Gilles les Bains
(21.0539°S, 55.2287°E)
Time: 01:02:50
(UTC+04:00)

Hubble Space Telescope - Visible Passes

Search period start: 13 November 2018 00:00
Search period end: 23 November 2018 00:00
Orbit: 537 x 540 km, 28.5° (Epoch: 11 November)

Date Brightness Start Highest point End Pass type
(mag) Time Alt. Az. Time Alt. Az. Time Alt. Az.
13 Nov 3.6 02:45:56 16° ESE 02:45:56 16° ESE 02:46:50 10° ESE visible
13 Nov 2.3 04:21:16 13° WSW 04:24:19 29° S 04:27:59 10° ESE visible
14 Nov 3.9 02:35:58 13° ESE 02:35:58 13° ESE 02:36:24 10° ESE visible
14 Nov 2.4 04:11:18 15° SW 04:14:01 28° S 04:17:40 10° ESE visible
15 Nov 2.5 04:01:22 17° SW 04:03:44 28° S 04:07:22 10° ESE visible
16 Nov 2.4 03:51:30 20° SW 03:53:26 29° S 03:57:05 10° ESE visible
17 Nov 2.4 03:41:41 24° SSW 03:43:08 30° S 03:46:50 10° ESE visible
18 Nov 2.2 03:32:00 30° SSW 03:32:49 33° S 03:36:36 10° ESE visible
19 Nov 2.0 03:22:28 37° S 03:22:29 37° S 03:26:22 10° E visible
19 Nov 0.7 04:59:41 10° WSW 05:03:51 79° NNW 05:08:00 10° ENE visible
20 Nov 2.3 03:13:07 36° SE 03:13:07 36° SE 03:16:07 10° E visible
20 Nov 0.8 04:49:19 10° WSW 04:53:26 60° NNW 04:57:30 10° NE visible
21 Nov 2.9 03:03:57 25° E 03:03:57 25° E 03:05:50 10° E visible
21 Nov 1.1 04:39:20 12° W 04:42:59 44° NNW 04:46:57 10° NE visible
21 Nov 2.2 20:02:07 10° NNW 20:04:26 23° N 20:04:26 23° N visible
22 Nov 3.6 02:55:00 13° E 02:55:00 13° E 02:55:32 10° E visible
22 Nov 1.5 04:30:25 20° WNW 04:32:32 33° NNW 04:36:17 10° NE visible
22 Nov 1.4 19:51:21 10° NW 19:55:10 35° NNE 19:55:51 33° NE visible
